OMD290 KPSM-KPWM

Flight info

Callsign OMD290
Flight time 0h 18m
Altitude 9000
Route PEASE ENE
Aircraft A321/M-SDE3FGHIRWY/LB1

Departure

Time 2026-05-06 22:07
Airport Portsmouth International Airport at Pease (KPSM)

Arrival

Time 2026-05-06 22:25
Airport Portland International Jetport (KPWM)
Time Latitude Longitude Altitude Speed Heading
2026-05-06 21:57 43.07906 -70.81780 103 ft 0 kts 150°
2026-05-06 22:01 43.07905 -70.81779 112 ft 1 kts 150°
2026-05-06 22:01 43.07886 -70.81765 103 ft 4 kts 151°
2026-05-06 22:01 43.07859 -70.81746 103 ft 4 kts 159°
2026-05-06 22:02 43.07833 -70.81768 103 ft 7 kts 225°
2026-05-06 22:02 43.07804 -70.81859 103 ft 12 kts 284°
2026-05-06 22:02 43.07874 -70.81937 103 ft 17 kts 327°
2026-05-06 22:02 43.08016 -70.82050 103 ft 31 kts 329°
2026-05-06 22:03 43.08216 -70.82218 103 ft 34 kts 328°
2026-05-06 22:03 43.08418 -70.82382 103 ft 33 kts 329°
2026-05-06 22:03 43.08615 -70.82542 103 ft 33 kts 329°
2026-05-06 22:03 43.08796 -70.82692 103 ft 25 kts 329°
2026-05-06 22:04 43.08933 -70.82811 103 ft 21 kts 329°
2026-05-06 22:04 43.09058 -70.82911 103 ft 21 kts 329°
2026-05-06 22:04 43.09186 -70.83016 103 ft 21 kts 327°
2026-05-06 22:04 43.09249 -70.83128 103 ft 10 kts 245°
2026-05-06 22:05 43.09210 -70.83219 103 ft 12 kts 235°
2026-05-06 22:05 43.09159 -70.83313 104 ft 13 kts 232°
2026-05-06 22:05 43.09093 -70.83382 105 ft 13 kts 185°
2026-05-06 22:05 43.09042 -70.83347 104 ft 1 kts 148°
2026-05-06 22:06 43.09028 -70.83335 104 ft 4 kts 148°
2026-05-06 22:06 43.09019 -70.83328 104 ft 1 kts 148°
2026-05-06 22:06 43.08875 -70.83210 104 ft 70 kts 149°
2026-05-06 22:06 43.08187 -70.82644 198 ft 147 kts 149°
2026-05-06 22:07 43.07262 -70.82046 1048 ft 153 kts 173°
2026-05-06 22:07 43.06220 -70.82352 1874 ft 164 kts 210°
2026-05-06 22:07 43.05271 -70.83455 2251 ft 197 kts 221°
2026-05-06 22:07 43.04190 -70.84908 2750 ft 233 kts 232°
2026-05-06 22:08 43.03666 -70.86995 4030 ft 238 kts 265°
2026-05-06 22:08 43.04081 -70.89206 5339 ft 251 kts 296°
2026-05-06 22:08 43.05416 -70.90809 6446 ft 275 kts 329°
2026-05-06 22:08 43.07368 -70.91198 7544 ft 297 kts
2026-05-06 22:09 43.09386 -70.90349 8466 ft 312 kts 23°
2026-05-06 22:09 43.11273 -70.88845 8817 ft 314 kts 28°
2026-05-06 22:09 43.13131 -70.87249 8955 ft 316 kts 29°
2026-05-06 22:09 43.14996 -70.85608 8988 ft 320 kts 29°
2026-05-06 22:10 43.16868 -70.83947 8989 ft 321 kts 29°
2026-05-06 22:10 43.18713 -70.82205 8993 ft 324 kts 38°
2026-05-06 22:10 43.20218 -70.79897 8996 ft 325 kts 50°
2026-05-06 22:10 43.21627 -70.77469 8984 ft 325 kts 50°
2026-05-06 22:11 43.23031 -70.75030 8984 ft 326 kts 50°
2026-05-06 22:11 43.24430 -70.72588 8991 ft 326 kts 50°
2026-05-06 22:11 43.25828 -70.70142 8998 ft 326 kts 50°
2026-05-06 22:11 43.27230 -70.67692 8990 ft 326 kts 50°
2026-05-06 22:12 43.28633 -70.65249 8995 ft 326 kts 50°
2026-05-06 22:12 43.30035 -70.62805 8997 ft 326 kts 50°
2026-05-06 22:12 43.31442 -70.60349 9003 ft 326 kts 50°
2026-05-06 22:12 43.32847 -70.57893 9017 ft 326 kts 50°
2026-05-06 22:13 43.34248 -70.55448 9019 ft 326 kts 50°
2026-05-06 22:13 43.35645 -70.53008 9020 ft 325 kts 50°
2026-05-06 22:13 43.37037 -70.50572 9022 ft 324 kts 50°
2026-05-06 22:13 43.38414 -70.48155 8943 ft 325 kts 51°
2026-05-06 22:14 43.39813 -70.45699 8476 ft 327 kts 51°
2026-05-06 22:14 43.41221 -70.43226 8041 ft 328 kts 51°
2026-05-06 22:14 43.42621 -70.40757 7656 ft 326 kts 51°
2026-05-06 22:14 43.44012 -70.38304 7262 ft 324 kts 51°
2026-05-06 22:15 43.45396 -70.35864 6812 ft 324 kts 51°
2026-05-06 22:15 43.46781 -70.33420 6427 ft 323 kts 52°
2026-05-06 22:15 43.48161 -70.30989 6070 ft 320 kts 51°
2026-05-06 22:15 43.49521 -70.28592 5702 ft 316 kts 51°
2026-05-06 22:16 43.50745 -70.26098 5309 ft 313 kts 68°
2026-05-06 22:16 43.51209 -70.23242 4917 ft 303 kts 94°
2026-05-06 22:16 43.51114 -70.20367 4512 ft 299 kts 100°
2026-05-06 22:16 43.50952 -70.17547 4317 ft 289 kts 100°
2026-05-06 22:17 43.50796 -70.14843 4199 ft 278 kts 101°
2026-05-06 22:17 43.50668 -70.12245 4072 ft 266 kts 101°
2026-05-06 22:17 43.50563 -70.09746 3947 ft 255 kts 101°
2026-05-06 22:17 43.50673 -70.07367 3857 ft 247 kts 77°
2026-05-06 22:18 43.51556 -70.05419 3724 ft 235 kts 38°
2026-05-06 22:18 43.52902 -70.04335 3568 ft 218 kts 15°
2026-05-06 22:18 43.54371 -70.03610 3090 ft 233 kts 11°
2026-05-06 22:18 43.55909 -70.02945 3005 ft 242 kts 11°
2026-05-06 22:19 43.57537 -70.02270 3010 ft 245 kts 11°
2026-05-06 22:19 43.59173 -70.01602 3008 ft 245 kts
2026-05-06 22:19 43.60804 -70.01397 3015 ft 227 kts 336°
2026-05-06 22:19 43.62007 -70.02490 3003 ft 198 kts 293°
2026-05-06 22:20 43.62501 -70.04182 3011 ft 187 kts 274°
2026-05-06 22:20 43.62719 -70.05962 3005 ft 193 kts 269°
2026-05-06 22:20 43.62873 -70.07805 3011 ft 192 kts 268°
2026-05-06 22:20 43.63007 -70.09634 2904 ft 191 kts 267°
2026-05-06 22:21 43.63136 -70.11458 2695 ft 190 kts 267°
2026-05-06 22:21 43.63261 -70.13247 2454 ft 190 kts 266°
2026-05-06 22:21 43.63387 -70.15072 2202 ft 191 kts 265°
2026-05-06 22:21 43.63514 -70.16903 1966 ft 192 kts 265°
2026-05-06 22:22 43.63642 -70.18736 1689 ft 182 kts 264°
2026-05-06 22:22 43.63762 -70.20294 1485 ft 142 kts 261°
2026-05-06 22:22 43.63848 -70.21516 1295 ft 120 kts 258°
2026-05-06 22:22 43.63919 -70.22625 1128 ft 113 kts 259°
2026-05-06 22:23 43.63988 -70.23702 969 ft 114 kts 262°
2026-05-06 22:23 43.64060 -70.24796 814 ft 115 kts 262°
2026-05-06 22:23 43.64131 -70.25918 632 ft 119 kts 266°
2026-05-06 22:23 43.64210 -70.27067 517 ft 122 kts 263°
2026-05-06 22:24 43.64287 -70.28230 362 ft 122 kts 264°
2026-05-06 22:24 43.64371 -70.29400 144 ft 121 kts 264°
2026-05-06 22:24 43.64444 -70.30522 64 ft 105 kts 275°
2026-05-06 22:24 43.64497 -70.31293 71 ft 61 kts 275°
2026-05-06 22:25 43.64527 -70.31738 86 ft 37 kts 275°
2026-05-06 22:25 43.64546 -70.32045 93 ft 27 kts 276°
2026-05-06 22:25 43.64564 -70.32294 94 ft 25 kts 275°
2026-05-06 22:25 43.64585 -70.32522 97 ft 21 kts 285°
2026-05-06 22:26 43.64677 -70.32571 97 ft 12 kts 28°
2026-05-06 22:26 43.64692 -70.32496 95 ft 9 kts 93°
2026-05-06 22:26 43.64685 -70.32399 93 ft 12 kts 96°
2026-05-06 22:26 43.64675 -70.32272 95 ft 15 kts 96°
2026-05-06 22:27 43.64663 -70.32117 90 ft 18 kts 95°
2026-05-06 22:27 43.64650 -70.31906 80 ft 27 kts 95°
2026-05-06 22:27 43.64627 -70.31605 84 ft 37 kts 96°
2026-05-06 22:27 43.64599 -70.31212 67 ft 43 kts 94°
2026-05-06 22:28 43.64574 -70.30823 58 ft 29 kts 95°
2026-05-06 22:28 43.64535 -70.30693 65 ft 10 kts 160°
2026-05-06 22:28 43.64452 -70.30685 62 ft 14 kts 181°
2026-05-06 22:28 43.64344 -70.30686 60 ft 17 kts 178°
2026-05-06 22:29 43.64235 -70.30659 65 ft 14 kts 129°
2026-05-06 22:29 43.64175 -70.30604 61 ft 12 kts 215°
2026-05-06 22:29 43.64144 -70.30666 64 ft 7 kts 236°
2026-05-06 22:29 43.64126 -70.30652 65 ft 3 kts 98°
2026-05-06 22:30 43.64146 -70.30632 59 ft 0 kts 18°
2026-05-06 22:30 43.64145 -70.30632 65 ft 1 kts 19°
2026-05-06 22:30 43.64126 -70.30640 56 ft 2 kts 24°
2026-05-06 22:30 43.64121 -70.30644 65 ft 2 kts 24°
2026-05-06 22:31 43.64119 -70.30645 65 ft 0 kts 24°